Starlink 1585

operational
NORAD ID: 46117 Int'l Des: 2020-057 Owner: SPXS Country: US Constellation: starlink
LEOCIRCULARSTARLINK_TYPE

Starlink 1585について

説明を読み込み中...

リアルタイム位置

3D地球を読み込み中...

次回通過

高度履歴

Altitude vs Time

uPlot chart will show altitude changes over time

軌道要素

1 46117U 20057A 25304.91668980 .00044067 00000-0 10859-2 0 9990
2 46117 53.0552 151.9587 0001567 96.1307 301.3183 15.40155775 5848
Epoch: Oct 31, 2025 • Age: 20 hours

現在のステータス

高度 458.0 km
速度 7.64 km/s
衛星直下点 -36.90°S, 58.3°E
打ち上げ日 Aug 18, 2020
運用期間 5.2 years
タイプ internet

技術仕様

分類 Payload
質量 260.00 kg
乾燥質量 248.00 kg
総質量 260.00 kg
長さ 0.20 m
直径 2.80 m
スパン 9.00 m
形状 Box + pan
製造者 SPXS
バスタイプ Starlink
フェーズステータス In Orbit
所有者/国 SPXS/US

大規模コンステレーション

Loading constellations...